Flock 4g-17

operational
NORAD ID: 62681 Int'l Des: 2025-009 Owner: PLAN Country: US Constellation: planet
LEOCIRCULARRETROGRADESSO

About Flock 4g-17

Description loading...

Live Position

Loading 3D Globe...

Upcoming Passes

Altitude History

Altitude vs Time

uPlot chart will show altitude changes over time

Two-Line Element Set

1 62681U 25009CA 26063.18716699 .00016297 00000-0 61296-3 0 9995
2 62681 97.3983 145.3053 0004050 2.6376 357.4884 15.27212322120513
Epoch: Mar 4, 2026 • Age: 17 hours

Current Status

Altitude 493.8 km
Velocity 7.62 km/s
Sub-Earth Point -31.87°S, 93.97°E
Launch Date Jan 14, 2025
Age 1.1 years
Type earth observation

Technical Details

Classification Payload
Mass 5.70 kg
Dry Mass 5.70 kg
Total Mass 5.70 kg
Length 0.30 m
Diameter 0.10 m
Span 0.30 m
Shape Box+2 pan
Manufacturer PLAN
Bus Type Cubesat 3U
Phase Status In Orbit
Owner/State PLAN/US

Large Constellations

Loading constellations...